This is the latest recevied weather packets stored in our database for station/object WB4MOZ-3. If no packets are shown the sender has not sent any weather packets the latest 10 day(s).
| Time | Temp. | Humidity | Pressure | Rain* | Wind** | Luminosity | Snow |
|---|---|---|---|---|---|---|---|
| 1777987368 | 26.67° C | 85% | 1014.2 hPa | 0 mm | - | - | - |
| 1777987067 | 26.67° C | 85% | 1014.1 hPa | 0 mm | - | - | - |
| 1777986836 | 26.67° C | 89% | 1014.1 hPa | 0 mm | - | - | - |
| 1777986836 | 26.11° C | 91% | 1013.8 hPa | 0 mm | - | - | - |
| 1777986767 | 26.67° C | 89% | 1014.1 hPa | 0 mm | - | - | - |
| 1777986467 | 26.11° C | 91% | 1013.8 hPa | 0 mm | - | - | - |
| 1777986168 | 26.11° C | 92% | 1013.9 hPa | 0 mm | - | - | - |
| 1777985867 | 26.11° C | 93% | 1013.9 hPa | 0 mm | - | - | - |
| 1777985567 | 25.56° C | 93% | 1013.8 hPa | 0 mm | - | - | - |
| 1777985267 | 26.11° C | 95% | 1013.9 hPa | 0 mm | - | - | - |
| 1777984967 | 25.56° C | 96% | 1013.8 hPa | 0 mm | - | - | - |
| 1777984667 | 25.56° C | 96% | 1013.8 hPa | 0 mm | - | - | - |
| 1777984367 | 25° C | 96% | 1013.7 hPa | 0 mm | - | - | - |
| 1777984067 | 25.56° C | 96% | 1013.5 hPa | 0 mm | - | - | - |
| 1777983767 | 25.56° C | 97% | 1013.5 hPa | 0 mm | - | - | - |
| 1777983167 | 25.56° C | 99% | 1013.5 hPa | 0 mm | - | - | - |
| 1777982867 | 25.56° C | 99% | 1013.3 hPa | 0 mm | - | - | - |
| 1777982567 | 25.56° C | 99% | 1013.2 hPa | 0 mm | - | - | - |
| 1777982267 | 25° C | 99% | 1013.3 hPa | 0 mm | - | - | - |
| 1777981967 | 25° C | 99% | 1013.3 hPa | 0 mm | - | - | - |
| 1777981667 | 25° C | 99% | 1013.3 hPa | 0 mm | - | - | - |
| 1777981367 | 25° C | 99% | 1013.4 hPa | 0 mm | - | - | - |
| 1777981067 | 24.44° C | 99% | 1013.4 hPa | 0 mm | - | - | - |
| 1777980767 | 23.89° C | 99% | 1013.3 hPa | 0 mm | - | - | - |
| 1777980468 | 23.89° C | 99% | 1013.2 hPa | 0 mm | - | - | - |
* Rain latest hour (hover to see other rain measurements)
** Current wind speed in m/s (hover to see current wind gust speed)